This is the latest recevied weather packets stored in our database for station/object N5CNB. If no packets are shown the sender has not sent any weather packets the latest 10 day(s).
| Time | Temp. | Humidity | Pressure | Rain* | Wind** | Luminosity | Snow |
|---|---|---|---|---|---|---|---|
| 1777777210 | 13.89° C | 87% | 1020.7 hPa | 0 mm | - | - | - |
| 1777776306 | 14.44° C | 87% | 1020.5 hPa | 0 mm | - | - | - |
| 1777775408 | 14.44° C | 85% | 1020.6 hPa | 0 mm | - | - | - |
| 1777774509 | 15° C | 84% | 1020.6 hPa | 0 mm | - | - | - |
| 1777773611 | 15.56° C | 81% | 1020.4 hPa | 0 mm | - | - | - |
| 1777772715 | 16.11° C | 79% | 1020.3 hPa | 0 mm | - | - | - |
| 1777771804 | 17.22° C | 77% | 1020.3 hPa | 0 mm | - | - | - |
| 1777770909 | 18.33° C | 73% | 1020.1 hPa | 0 mm | - | - | - |
| 1777770011 | 20° C | 66% | 1019.8 hPa | 0 mm | - | - | - |
| 1777769110 | 21.67° C | 59% | 1019.6 hPa | 0 mm | - | - | - |
| 1777768213 | 22.22° C | 53% | 1019.6 hPa | 0 mm | - | - | - |
| 1777767304 | 22.78° C | 51% | 1019.5 hPa | 0 mm | - | - | - |
| 1777766405 | 22.78° C | 49% | 1019.5 hPa | 0 mm | - | - | - |
| 1777765512 | 22.78° C | 50% | 1019.4 hPa | 0 mm | - | - | - |
| 1777764616 | 23.33° C | 47% | 1019.3 hPa | 0 mm | - | - | - |
| 1777763718 | 23.33° C | 48% | 1019.1 hPa | 0 mm | - | - | - |
| 1777762805 | 23.33° C | 47% | 1019.3 hPa | 0 mm | - | - | - |
| 1777761910 | 23.33° C | 48% | 1019.2 hPa | 0 mm | - | - | - |
| 1777761010 | 23.33° C | 48% | 1019.2 hPa | 0 mm | - | - | - |
| 1777760113 | 23.33° C | 47% | 1019.2 hPa | 0 mm | - | - | - |
| 1777759215 | 22.78° C | 50% | 1019.2 hPa | 0 mm | - | - | - |
| 1777758307 | 22.78° C | 50% | 1019.5 hPa | 0 mm | - | - | - |
| 1777757409 | 22.78° C | 49% | 1019.6 hPa | 0 mm | - | - | - |
| 1777756523 | 22.78° C | 51% | 1019.9 hPa | 0 mm | - | - | - |
| 1777755614 | 23.33° C | 49% | 1020.1 hPa | 0 mm | - | - | - |
* Rain latest hour (hover to see other rain measurements)
** Current wind speed in m/s (hover to see current wind gust speed)